Location: Chillicothe
(39.7950°N, 93.5520°W)
Time: 00:08:58
(UTC-06:00)

Vanguard 3 - Pass Details

Date: 30 October 2019
Orbit: 508 x 3263 km, 33.3° (Epoch: 12 November)

Event Time Altitude Azimuth Distance (km) Brightness Sun altitude
Rises 23:08:50 0° 258° (WSW) 4,186 11.1 -54.8°
Enters shadow 23:09:51 - 257° (WSW) 3,800 10.8 -55.0°
Reaches altitude 10° 23:12:27 10° 252° (WSW) 2,798 - -55.4°
Maximum altitude 23:18:15 41° 184° (S) 1,033 - -56.2°
Drops below altitude 10° 23:22:09 10° 113° (ESE) 1,884 - -56.8°
Sets 23:24:10 0° 105° (ESE) 2,671 - -57.0°
